This demonstration page uses our WeatherBlox Daily Observations layout. Learn more.

Left ArrowRight Arrow

Hourly Observations for June 21, 2016

Temp ( °F °C ) Dew Point ( °F °C ) Humidity (%) Winds ( mph kmh ) Pressure ( in mb ) Visibility ( mi km ) Precip ( " mm )
12:54 am 00:54 Partly Cloudy 67 19.4 62 16.7 84 84 N 7 11 30.14 1021 10 16.0934 0 0
1:54 am 01:54 Mostly Cloudy 67 19.4 63 17.2 87 87 NNE 5 7 30.1 1019 10 16.0934 0 0
2:54 am 02:54 Cloudy 69 20.6 63 17.2 81 81 N 15 24 30.1 1019 10 16.0934 0 0
3:54 am 03:54 Cloudy 70 21.1 62 16.7 76 76 N 10 17 30.09 1019 10 16.0934 0 0
4:54 am 04:54 Cloudy 67 19.4 60 15.6 79 79 NE 9 15 30.09 1019 10 16.0934 0 0
5:54 am 05:54 Cloudy with Nearby Thunderstorms 67 19.4 61 16.1 81 81 ENE 8 13 30.08 1019 10 16.0934 0 0
6:13 am 06:13 Cloudy 67 19.4 61 16.1 81 81 E 6 9 30.06 1018 10 16.0934 0 0
6:54 am 06:54 Mostly Sunny 67 19.4 62 16.7 84 84 SE 7 11 30.06 1018 10 16.0934 0 0
7:54 am 07:54 Sunny 71 21.7 63 17.2 76 76 SE 5 7 30.06 1018 10 16.0934 0 0
8:54 am 08:54 Mostly Sunny 75 23.9 66 18.9 74 74 ESE 6 9 30.05 1018 10 16.0934 0 0
9:54 am 09:54 Sunny 79 26.1 68 20 69 69 ESE 6 9 30.04 1017 10 16.0934 0 0
10:54 am 10:54 Sunny 83 28.3 69 20.6 63 63 E 8 13 30.01 1016 10 16.0934 0 0
11:54 am 11:54 Partly Cloudy 85 29.4 71 21.7 63 63 ESE 9 15 29.99 1016 10 16.0934 0 0
12:54 pm 12:54 Sunny 88 31.1 72 22.2 59 59 SSE 12 19 29.97 1015 10 16.0934 0 0
1:54 pm 13:54 Partly Cloudy 89 31.7 72 22.2 57 57 SSE 12 19 29.95 1014 10 16.0934 0 0
2:54 pm 14:54 Sunny 92 33.3 72 22.2 52 52 SSE 14 22 29.91 1013 10 16.0934 0 0
3:54 pm 15:54 Sunny 95 35 70 21.1 44 44 S 13 20 29.87 1011 10 16.0934 0 0
4:54 pm 16:54 Sunny 97 36.1 70 21.1 42 42 S 15 24 29.83 1010 10 16.0934 0 0
5:54 pm 17:54 Sunny 98 36.7 68 20 38 38 S 14 22 29.78 1009 10 16.0934 0 0
6:54 pm 18:54 Sunny 96 35.6 64 17.8 35 35 S 14 22 29.77 1008 10 16.0934 0 0
7:54 pm 19:54 Sunny 92 33.3 64 17.8 40 40 S 14 22 29.75 1007 10 16.0934 0 0
8:54 pm 20:54 Sunny 89 31.7 62 16.7 41 41 S 14 22 29.72 1007 10 16.0934 0 0
9:54 pm 21:54 Clear 90 32.2 61 16.1 38 38 S 15 24 29.73 1007 10 16.0934 0 0
10:54 pm 22:54 Clear 88 31.1 60 15.6 39 39 S 14 22 29.72 1007 10 16.0934 0 0
11:54 pm 23:54 Clear 86 30 60 15.6 42 42 S 15 24 29.7 1006 10 16.0934 0 0

Powered by AerisWeather